Cloud_Cover
38 5 39 86 59 13 98 100 92 94 100 13 96 97 5 9 86 5 40 88 100 100 40 5 3 22 100 77 1 5 15 32 2 0 0 0 0 0
98 60 85 64 100 53 30 94 98 99 100 100 100 94 55 100 5 29 97 100 78 41 5 5 10 100 94 1 86 82 5 2 0 0 0 0 0 0
100 99 100 100 98 100 100 100 100 100 100 100 100 98 100 82 19 44 100 25 89 5 5 12 100 98 1 11 60 3 0 0 0 0 0 0 0 0
100 94 100 100 100 100 100 100 97 100 100 100 100 100 100 100 100 100 19 99 81 54 78 95 65 4 69 6 0 0 0 0 0 0 0 1 5 4
100 100 100 100 100 100 100 100 100 100 100 100 100 100 100 100 96 98 6 34 80 6 5 5 0 5 5 5 0 0 0 0 0 0 5 4 5 56
100 100 100 100 100 100 100 100 100 100 100 100 100 100 100 97 100 77 100 100 36 100 42 5 4 40 5 44 0 0 2 0 0 3 5 5 45 62
100 100 100 100 100 100 100 100 100 100 100 100 100 100 100 100 100 100 100 100 40 55 6 5 4 17 87 33 0 0 5 3 4 5 5 5 77 9
100 100 100 100 100 100 100 100 100 100 100 100 100 100 100 100 100 97 94 90 100 84 100 5 5 84 100 5 2 5 0 5 5 5 5 5 5 5
100 100 100 100 100 100 98 98 100 98 100 100 100 100 100 100 100 99 100 100 100 100 15 5 87 100 97 7 73 4 1 5 14 78 5 3 5 5
100 100 100 93 86 29 85 98 100 100 100 100 100 100 100 93 100 100 100 100 100 32 9 98 100 100 57 69 9 5 5 16 23 5 4 1 5 2
100 99 74 10 22 46 30 100 100 100 100 100 99 16 53 36 11 95 100 100 97 20 100 100 100 100 100 99 31 98 57 5 5 5 5 4 5 0
85 10 47 17 5 5 5 69 100 100 100 75 5 7 13 17 74 71 99 100 81 96 92 99 45 32 12 85 73 5 5 1 0 5 5 5 0 0
90 14 61 72 22 5 5 5 30 71 99 42 5 5 9 8 64 100 86 73 100 100 77 100 100 35 5 5 5 4 5 0 0 2 5 5 0 0
16 100 100 100 84 67 39 52 57 83 87 59 57 96 65 62 100 100 52 97 100 100 100 100 100 9 5 4 4 2 2 0 0 5 5 5 1 5
7 21 96 89 98 62 23 5 42 46 74 98 80 56 46 96 100 100 100 96 100 97 100 100 98 45 5 4 1 4 4 2 5 0 8 52 5 5
100 100 100 100 96 8 5 5 80 99 42 70 90 71 92 100 93 99 100 100 100 100 100 100 100 95 5 5 5 6 5 5 0 5 24 98 74 4
100 100 100 100 81 16 5 5 5 20 100 86 85 78 94 100 100 76 100 100 100 100 100 100 100 93 19 5 5 44 5 5 5 5 5 68 8 0
100 100 96 100 96 79 24 12 17 24 92 91 99 100 100 100 100 80 100 100 100 100 100 100 100 100 97 76 9 9 43 5 5 5 5 2 2 0
100 100 97 97 100 100 89 82 90 95 85 68 100 100 91 100 100 100 100 100 100 100 100 100 100 94 90 51 100 12 5 3 0 5 5 0 0 0
100 100 100 100 100 100 99 84 100 100 82 92 99 100 83 100 100 98 100 100 100 100 100 100 100 100 100 61 7 41 5 0 0 0 0 5 0 0
100 100 100 100 100 100 100 100 100 100 100 88 100 100 99 95 100 100 100 100 100 100 100 97 100 100 100 14 5 5 39 55 5 2 0 0 0 0
100 100 100 100 100 100 100 100 100 100 100 99 100 99 78 72 84 100 100 100 100 100 100 100 100 100 100 10 5 5 5 5 14 67 16 5 3 5
100 100 100 100 100 100 100 100 100 100 100 100 100 98 80 71 78 100 100 100 100 100 100 100 100 100 37 5 5 5 5 1 1 6 5 5 5 5